Location: Tel Aviv
(32.0670°N, 34.7670°E)
Time: 20:36:13
(UTC+03:00)

Vanguard 2 Rocket - Pass Details

Date: 31 January 2022
Orbit: 553 x 3323 km, 32.9° (Epoch: 24 May)

Event Time Altitude Azimuth Distance (km) Brightness Sun altitude
Exits shadow 06:04:11 - 284° (WNW) 6,120 10.4 -7.1°
Reaches altitude 10° 06:05:12 10° 283° (WNW) 5,937 10.3 -6.9°
Maximum altitude 06:23:45 52° 215° (SW) 3,828 10.0 -3.2°
Drops below altitude 10° 06:41:00 10° 145° (SE) 5,527 11.9 0.3°
Sets 06:44:53 0° 140° (SE) 6,247 12.4 1.0°
